Volver al catálogo

HILAT

ActivoCienciaPO
NORAD 14154·PAYLOAD·🇺🇸 United States

Lanzado Jun 27, 1983 desde Vandenberg Space Force Base

Loading…

Próximos Pases (próximas 24 horas)

TLE

ActualizadoSource: Space-Track

Época: Sep 14, 2026, 12:41 UTC

1 14154U 83063A   26257.52864428  .00000232  00000-0  69714-4 0  9994
2 14154  82.0208  77.9558 0039724  21.4999 359.4061 14.38756667260433

Sigue HILAT en tiempo real con AllMySat

Download on the App Store